TimeCDT,TemperatureF,Dew PointF,Humidity,Sea Level PressureIn,VisibilityMPH,Wind Direction,Wind SpeedMPH,Gust SpeedMPH,PrecipitationIn,Events,Conditions,WindDirDegrees,DateUTC
12:53 AM,53.1,48.0,83,29.85,10.0,North,6.9,-,N/A,,Clear,10,2012-09-25 05:53:00
1:53 AM,53.1,48.0,83,29.85,10.0,Calm,Calm,-,N/A,,Partly Cloudy,0,2012-09-25 06:53:00
2:53 AM,51.1,46.9,86,29.84,10.0,NNW,3.5,-,N/A,,Clear,330,2012-09-25 07:53:00
3:53 AM,51.1,46.9,86,29.85,10.0,NNW,4.6,-,N/A,,Clear,340,2012-09-25 08:53:00
4:53 AM,48.9,46.0,90,29.87,10.0,West,3.5,-,N/A,,Clear,270,2012-09-25 09:53:00
5:53 AM,51.1,46.9,86,29.84,10.0,North,11.5,-,N/A,,Clear,10,2012-09-25 10:53:00
6:53 AM,51.1,46.9,86,29.87,10.0,SW,3.5,-,N/A,,Clear,230,2012-09-25 11:53:00
7:53 AM,51.1,46.9,86,29.87,10.0,North,9.2,-,N/A,,Clear,350,2012-09-25 12:53:00
8:53 AM,59.0,48.9,69,29.88,10.0,Calm,Calm,-,N/A,,Clear,0,2012-09-25 13:53:00
9:53 AM,66.0,51.1,59,29.89,10.0,NE,4.6,-,N/A,,Clear,50,2012-09-25 14:53:00
10:53 AM,66.9,51.1,57,29.90,10.0,East,5.8,-,N/A,,Clear,90,2012-09-25 15:53:00
11:53 AM,68.0,52.0,56,29.88,10.0,East,9.2,-,N/A,,Clear,80,2012-09-25 16:53:00
12:53 PM,69.1,53.1,57,29.88,10.0,South,4.6,-,0.00,Rain,Light Rain,180,2012-09-25 17:53:00
2:53 PM,75.0,53.1,46,29.85,10.0,ENE,10.4,-,0.00,,Clear,70,2012-09-25 19:53:00
3:53 PM,77.0,53.1,43,29.83,10.0,NE,9.2,16.1,N/A,,Clear,40,2012-09-25 20:53:00
4:53 PM,77.0,53.1,43,29.84,10.0,ENE,10.4,-,0.00,Rain,Light Rain,60,2012-09-25 21:53:00
5:53 PM,75.9,53.1,45,29.86,10.0,NNE,6.9,-,0.00,,Mostly Cloudy,30,2012-09-25 22:53:00
7:53 PM,66.9,54.0,63,29.86,10.0,NE,5.8,-,N/A,,Clear,50,2012-09-26 00:53:00
8:53 PM,60.1,52.0,75,29.87,10.0,NE,4.6,-,N/A,,Clear,40,2012-09-26 01:53:00
9:53 PM,63.0,52.0,67,29.86,10.0,NNE,8.1,-,N/A,,Clear,20,2012-09-26 02:53:00
10:53 PM,62.1,52.0,70,29.85,10.0,NE,9.2,-,N/A,,Clear,40,2012-09-26 03:53:00